CDT,Max TemperatureF,Mean TemperatureF,Min TemperatureF,Max Dew PointF,MeanDew PointF,Min DewpointF,Max Humidity, Mean Humidity, Min Humidity, Max Sea Level PressureIn, Mean Sea Level PressureIn, Min Sea Level PressureIn, Max VisibilityMiles, Mean VisibilityMiles, Min VisibilityMiles, Max Wind SpeedMPH, Mean Wind SpeedMPH, Max Gust SpeedMPH,PrecipitationIn, CloudCover, Events, WindDirDegrees
2013-4-1,41,32,23,30,20,12,90,63,31,30.34,30.28,30.17,10,10,10,21,12,26,0.00,0,,360
2013-4-2,54,38,22,28,22,18,88,58,31,30.32,30.28,30.22,10,10,10,9,2,,0.00,2,,146
2013-4-3,58,42,27,27,24,22,83,56,28,30.34,30.27,30.20,10,10,10,17,8,22,0.00,0,,169
2013-4-4,67,46,28,35,30,24,89,58,32,30.22,30.12,30.05,10,10,10,14,7,20,0.03,0,,291
2013-4-5,71,51,31,37,32,28,89,53,23,30.16,29.98,29.70,10,10,10,26,11,36,0.00,0,,133
2013-4-6,72,60,48,45,39,34,76,50,25,29.79,29.67,29.59,10,10,10,26,14,34,0.00,2,Rain,269
2013-4-7,74,56,38,50,41,34,91,64,28,29.84,29.75,29.64,10,10,7,25,6,32,0.11,5,Rain,95
2013-4-8,68,56,45,59,54,44,97,84,68,29.70,29.67,29.61,10,8,0,23,8,18,0.01,5,Fog-Rain,150
2013-4-9,62,48,33,59,42,32,94,92,88,29.97,29.78,29.55,10,5,1,30,18,38,0.72,8,Rain-Snow,12
2013-4-10,36,34,32,34,33,31,97,93,87,29.98,29.90,29.82,10,5,1,28,16,36,0.12,8,Rain-Snow,341
2013-4-11,37,34,30,33,29,27,94,87,81,29.81,29.70,29.66,10,9,2,21,13,26,0.01,8,Snow,294
2013-4-12,44,37,30,30,29,28,88,77,60,30.03,29.88,29.74,10,10,10,22,15,26,0.00,6,,310
2013-4-13,55,40,26,39,33,24,89,70,52,30.03,29.87,29.65,10,10,10,22,8,26,0.00,4,,155
2013-4-14,66,54,43,52,42,32,88,70,43,29.68,29.48,29.30,10,10,1,23,13,38,0.27,3,Rain,215
2013-4-15,46,39,32,33,29,23,90,66,53,30.10,29.89,29.68,10,10,2,16,11,21,0.00,5,Snow,306
2013-4-16,52,43,35,34,31,28,81,63,41,30.24,30.16,30.07,10,10,10,17,10,22,0.00,7,,33
2013-4-17,46,42,36,40,37,34,93,85,62,30.16,29.94,29.74,10,7,2,26,14,34,0.49,8,Rain,19
2013-4-18,37,34,32,34,30,27,95,87,77,29.92,29.81,29.72,10,6,0,31,24,40,0.10,8,Rain-Snow,326
2013-4-19,46,38,29,27,24,21,79,61,39,30.10,29.97,29.88,10,10,10,24,17,34,0.00,1,,312
2013-4-20,46,36,25,32,25,19,89,64,38,30.26,30.17,30.10,10,10,10,18,7,22,0.00,3,,92
2013-4-21,68,54,41,49,39,31,88,59,32,30.13,30.06,29.97,10,10,4,26,12,34,0.06,6,Rain,173
2013-4-22,50,42,32,49,39,29,96,91,85,30.23,30.07,29.96,10,7,1,30,12,37,0.56,8,Rain,10
2013-4-23,37,32,28,29,25,23,86,73,60,30.27,30.21,30.17,10,10,10,29,21,36,0.00,5,,346
2013-4-24,61,43,27,39,26,22,83,60,26,30.21,30.14,30.04,10,10,10,25,9,36,0.00,1,Rain,262
2013-4-25,71,51,32,38,32,27,85,53,22,30.25,30.14,30.00,10,10,10,24,8,33,0.00,0,,198
2013-4-26,73,58,45,50,42,37,89,57,32,30.19,30.08,30.01,10,10,10,18,10,25,0.00,0,,178
2013-4-27,72,56,41,50,46,40,97,74,35,30.21,30.07,29.95,10,7,0,15,6,20,0.00,3,Fog,174
2013-4-28,84,63,42,53,46,41,96,62,23,29.95,29.81,29.68,10,8,2,18,9,25,0.00,0,,176
2013-4-29,85,68,53,56,47,42,78,53,22,29.79,29.67,29.49,10,10,10,16,7,20,0.00,1,,121
2013-4-30,74,66,57,56,45,33,59,44,33,29.93,29.68,29.48,10,10,7,24,16,32,0.00,3,Rain,360